Temperature
21 22 21 20 20 20 19 19 19 19 19 19 19 19 19 19 19 19 19 19 18 18 18 18 18 18 18 18 18 18 18 18 18 18 18 18 18 17 17 17 17 17 17
22 22 21 20 20 20 19 19 19 19 19 19 19 19 19 19 19 19 18 18 18 18 18 18 18 18 18 18 18 18 18 18 18 18 18 18 17 17 17 17 17 17 17
22 22 21 21 20 20 19 19 19 19 19 19 19 19 19 19 18 18 18 18 18 18 18 18 18 18 18 18 18 18 18 18 17 17 17 17 17 17 17 17 17 17 17
22 22 21 21 20 20 19 19 19 19 19 19 19 19 18 18 18 18 18 18 18 18 18 18 18 18 18 18 18 18 18 17 17 17 17 17 17 17 17 17 17 17 17
21 21 21 21 20 20 19 19 19 19 19 18 18 18 18 18 18 18 18 18 18 18 18 18 18 18 18 18 18 18 17 17 17 17 17 17 17 17 17 17 17 17 17
21 21 21 21 20 20 19 19 19 19 19 18 18 18 18 18 18 18 18 18 18 18 18 18 18 18 18 18 18 18 17 17 17 17 17 17 17 17 17 17 17 17 17
20 21 21 21 20 20 19 19 19 19 19 18 18 18 18 18 18 18 18 18 18 18 18 18 18 18 18 18 18 18 18 17 17 17 17 17 17 17 17 17 17 17 17
21 21 21 21 20 20 19 19 19 19 19 18 18 18 18 18 18 18 18 18 18 18 18 18 18 18 18 18 18 18 18 17 17 17 17 17 17 17 17 17 17 17 17
21 21 21 21 20 20 19 19 19 19 19 18 18 18 18 18 18 18 18 18 18 18 18 18 18 18 18 18 18 18 18 18 17 17 17 18 17 17 17 17 17 17 17
21 21 21 21 20 20 19 19 19 19 19 19 19 18 18 18 18 18 18 18 18 18 18 18 18 18 18 18 18 18 18 18 17 17 18 18 17 17 17 17 17 17 17
21 20 20 20 20 19 19 19 19 19 19 19 19 18 18 18 18 18 18 18 18 18 18 18 18 18 18 18 18 18 18 18 18 18 18 18 17 17 17 17 17 17 17
22 21 20 19 19 19 18 19 19 18 19 18 18 18 18 18 17 18 18 18 18 18 18 18 18 18 18 18 18 18 18 18 17 18 18 18 18 17 17 17 17 17 17
22 21 20 20 19 19 19 19 18 18 18 18 18 18 18 18 18 18 18 18 18 18 18 18 18 18 18 18 18 18 18 18 18 18 18 18 18 17 17 17 17 17 17
22 21 21 20 19 19 19 19 18 18 18 18 18 18 18 18 18 18 18 18 18 18 18 18 18 18 18 18 18 18 18 18 18 18 18 18 18 17 17 17 17 17 17
21 21 20 20 20 19 19 19 19 18 18 18 18 18 18 18 18 18 18 18 18 18 18 18 18 18 18 18 18 18 18 18 17 18 18 18 17 17 17 17 17 17 17
21 21 20 20 19 19 19 19 19 18 18 18 18 18 18 18 18 18 18 18 18 18 18 18 18 18 18 18 18 18 18 17 17 17 17 17 17 17 17 17 17 17 17
21 20 20 20 19 19 19 19 18 19 18 18 18 18 18 18 18 18 18 18 18 18 18 18 18 18 18 18 18 18 18 17 17 17 17 17 17 17 17 17 17 17 17
20 20 20 19 19 19 19 18 18 18 19 18 18 18 18 18 18 18 18 18 18 18 18 18 18 18 18 18 18 18 18 18 17 17 17 17 17 17 17 17 17 17 17
20 20 19 19 19 19 18 18 18 18 18 18 18 18 18 18 18 18 18 18 18 18 18 18 18 18 18 18 18 18 17 17 17 17 17 17 17 17 17 17 17 17 17
20 20 19 19 19 18 18 18 18 18 18 18 18 18 18 18 18 18 18 18 18 18 18 18 18 18 18 18 18 18 18 17 17 17 17 17 17 17 17 17 17 17 17
19 19 19 19 18 18 18 18 18 18 18 18 18 18 18 18 18 18 18 18 18 18 18 18 18 18 18 18 18 18 18 18 17 17 17 17 17 17 17 17 17 17 16
19 19 19 18 18 18 18 18 18 18 18 18 18 18 18 18 18 18 18 18 18 18 18 17 18 18 18 18 18 18 18 18 18 18 18 18 17 17 17 17 17 16 16
19 19 18 18 18 18 18 18 17 17 17 17 17 17 18 18 18 18 18 18 18 18 18 17 17 18 18 18 18 18 18 18 18 18 18 18 18 17 17 17 17 17 16
19 19 18 18 18 18 18 18 17 17 18 18 17 17 17 17 17 18 18 18 18 18 17 17 17 18 18 18 18 18 18 18 18 18 18 18 18 18 17 17 17 17 17
19 19 18 18 18 18 18 18 18 18 18 18 17 17 17 17 17 17 17 18 18 18 17 17 17 17 18 18 18 18 18 18 18 18 18 18 18 18 18 18 17 17 17
19 19 18 18 18 18 18 18 18 18 18 17 17 17 17 17 17 17 17 17 18 18 17 17 17 17 17 17 18 18 18 18 18 18 19 19 18 18 18 18 18 17 17
Wind_Speed
18 17 17 16 16 16 16 16 16 15 15 15 15 15 15 16 16 16 16 16 16 16 16 15 15 15 16 16 16 16 17 17 19 19 19 18 16 15 15 17 19 17 19
21 19 18 17 17 17 17 16 16 16 15 15 15 15 14 15 15 15 15 15 16 16 16 16 15 16 15 15 15 15 15 16 17 18 19 17 16 15 15 17 18 16 18
21 20 18 17 17 17 17 17 17 16 15 15 14 14 14 14 14 15 15 15 16 16 16 16 16 15 15 14 14 13 13 14 15 16 17 16 15 16 18 20 19 18 18
21 19 18 18 18 17 17 17 16 16 15 14 14 14 14 14 14 15 15 16 16 16 16 16 15 15 14 13 12 11 11 11 11 11 13 14 15 17 18 18 18 18 17
19 20 20 19 18 18 17 17 16 15 15 14 14 13 14 14 14 14 15 16 16 16 16 15 15 15 13 12 10 8 8 8 8 11 16 16 15 16 17 17 17 16 16
20 20 20 19 18 18 17 16 16 15 15 14 13 13 13 13 14 14 15 15 15 15 15 15 15 14 13 10 8 6 4 3 4 13 16 17 15 16 16 16 16 15 15
20 20 20 19 18 17 16 16 15 15 14 14 13 13 13 13 13 14 14 14 15 15 14 14 14 13 11 9 6 4 3 4 5 16 17 16 15 15 16 16 15 15 14
21 20 20 19 18 17 16 16 15 15 14 13 13 13 13 13 13 13 14 14 14 14 14 13 13 12 10 7 4 2 3 5 10 17 17 15 15 15 15 15 15 14 14
21 19 18 18 17 17 16 15 15 14 14 13 13 13 13 13 13 13 13 13 13 13 12 12 11 10 9 5 2 1 3 5 5 15 16 14 15 14 14 14 14 14 14
19 19 16 17 17 16 15 15 15 14 14 13 13 13 13 13 13 13 13 12 12 11 11 11 10 9 7 5 2 2 3 4 6 16 15 14 15 14 14 13 13 13 13
17 17 16 16 16 16 16 16 15 14 13 13 12 12 12 11 12 11 13 12 11 10 10 9 9 8 7 5 4 3 4 0 10 14 15 16 15 14 13 13 12 12 12
15 15 15 15 13 13 14 15 13 13 13 12 11 12 9 8 10 12 14 12 11 10 9 8 8 8 7 6 6 6 4 4 10 14 14 16 14 13 12 12 11 11 11
14 12 13 13 10 10 10 11 10 11 11 11 11 11 9 9 10 13 11 10 10 10 9 9 8 8 7 5 5 4 2 8 10 14 14 15 14 12 11 11 11 11 10
12 12 12 12 9 8 9 8 8 8 8 7 10 10 8 5 5 8 7 9 9 8 7 7 6 7 5 4 4 4 3 7 12 13 13 14 13 12 11 10 10 10 10
11 11 11 10 8 7 6 5 6 6 7 8 9 7 8 5 4 5 4 5 7 7 6 3 2 4 3 3 3 5 5 7 12 13 12 13 13 11 10 10 10 10 10
12 11 11 11 9 7 6 4 4 6 7 9 9 9 8 6 5 4 3 2 3 4 4 4 3 3 2 2 2 4 5 6 11 13 13 12 12 11 11 10 10 9 9
12 11 11 11 10 9 8 6 5 6 8 6 8 9 7 6 8 5 3 2 2 5 5 3 2 3 3 3 3 3 4 5 8 11 13 13 12 11 11 11 10 10 10
12 11 11 12 11 10 8 5 4 5 6 6 8 9 7 7 9 5 3 3 4 5 3 2 2 2 2 3 3 2 3 4 6 9 12 13 13 12 12 12 11 10 10
11 11 10 10 11 11 9 6 4 2 3 5 7 9 8 8 9 6 3 3 4 2 2 3 3 2 2 3 4 3 3 3 4 6 8 11 13 14 14 14 13 12 11
11 11 10 9 10 10 8 5 4 4 3 4 5 7 9 8 8 6 4 4 3 2 2 2 3 2 1 1 2 3 3 3 3 3 4 7 10 13 15 14 14 12 13
11 11 11 11 11 9 8 7 6 6 5 4 4 8 9 8 8 4 3 4 2 2 3 4 3 3 2 2 1 1 2 4 4 4 3 3 6 8 13 16 15 13 13
11 11 11 10 11 10 8 7 6 6 5 5 4 6 9 8 8 7 4 4 4 2 2 2 2 1 2 2 1 1 1 1 2 5 5 5 5 7 8 12 12 13 13
11 11 11 10 11 10 9 6 6 5 4 5 5 5 7 8 8 6 6 4 5 5 4 4 4 4 2 2 2 1 1 2 2 2 4 4 4 4 4 8 12 12 12
11 11 10 10 10 10 10 9 9 8 7 6 6 6 6 7 8 8 7 5 4 4 5 6 6 3 3 2 2 1 2 2 1 0 2 3 5 5 4 5 7 11 12
11 11 10 10 9 9 9 9 9 7 6 5 5 7 7 6 7 8 7 6 5 4 5 5 3 3 3 3 2 3 3 3 3 3 2 3 4 5 5 4 4 8 12
10 10 9 10 9 9 9 9 9 8 7 7 7 7 7 6 6 7 7 6 5 4 4 4 3 5 3 2 2 2 1 2 2 2 2 3 4 4 5 4 4 5 9
Wind_Direction
123 125 126 125 126 126 125 121 116 110 105 101 98 95 92 90 89 90 92 95 96 97 97 96 93 92 90 88 88 89 91 96 99 98 96 93 92 93 98 103 99 96 100
124 126 126 126 128 127 125 122 118 114 109 105 101 99 96 94 94 94 96 97 97 98 98 97 96 95 94 94 95 97 99 105 109 107 102 93 90 90 93 94 95 101 102
123 127 128 126 127 127 125 122 120 117 113 109 105 103 100 98 98 98 98 99 98 98 99 99 98 97 97 98 101 104 108 113 119 121 111 101 94 91 93 96 98 100 100
126 132 128 127 126 126 126 124 122 119 117 113 109 107 104 102 100 99 99 100 99 100 99 100 101 101 100 101 104 109 114 119 126 128 107 103 98 97 98 99 101 101 102
126 124 127 130 128 126 126 125 123 121 119 116 112 109 106 104 103 102 102 101 101 101 101 101 101 102 103 103 106 110 114 121 128 112 96 94 96 103 101 102 103 103 104
126 127 131 131 129 129 128 127 126 124 122 119 115 111 109 107 106 104 104 103 103 103 102 102 103 103 103 104 107 106 101 110 122 111 109 104 103 106 105 104 104 105 105
131 129 134 134 132 132 131 130 128 126 124 122 118 115 112 110 109 107 106 105 106 105 104 104 105 105 104 106 107 91 49 348 100 99 96 98 106 109 108 107 108 108 108
131 132 135 137 136 136 135 134 132 129 128 126 122 118 116 114 112 112 111 110 109 107 107 106 106 108 108 109 106 64 6 359 101 104 100 102 110 111 111 111 111 112 111
133 133 141 142 141 140 139 138 136 133 131 129 127 124 121 120 119 117 115 114 114 113 112 112 111 112 116 120 123 341 336 5 83 115 110 110 114 115 115 114 114 114 115
136 140 146 147 146 148 145 142 140 138 137 134 135 135 132 131 129 128 124 120 120 120 120 121 122 124 132 144 177 272 329 339 110 109 110 117 120 120 119 118 117 117 118
141 144 152 149 152 155 151 147 146 145 145 145 147 150 151 151 143 144 125 130 130 131 133 136 138 142 152 174 206 253 292 227 98 103 110 123 125 125 125 124 123 122 121
145 152 151 149 156 157 150 147 155 156 157 165 159 167 180 154 145 133 134 141 145 147 151 158 161 170 185 184 198 222 244 125 108 110 119 129 129 129 130 129 128 126 125
150 152 148 149 156 155 141 157 164 156 165 172 166 175 171 148 143 137 148 152 162 170 178 168 183 203 204 197 179 194 169 114 108 112 128 132 133 135 136 136 136 134 133
154 153 148 149 156 150 149 160 158 152 163 165 164 177 160 161 147 148 157 165 174 183 177 175 193 195 187 158 138 122 107 105 109 115 134 138 139 141 142 142 143 143 142
158 153 143 144 148 145 141 162 159 149 165 160 163 178 162 161 150 143 146 164 178 167 163 175 173 143 144 143 140 119 112 106 119 126 137 147 148 149 151 151 153 154 153
162 155 149 152 156 149 147 160 144 155 158 159 162 169 178 158 136 134 149 178 166 143 135 143 143 131 120 100 92 101 103 106 113 128 142 152 158 160 160 161 165 166 165
161 158 157 159 160 159 158 170 168 171 168 158 152 157 175 154 142 153 157 188 155 129 125 135 139 137 155 148 123 112 108 111 119 136 150 158 165 170 170 171 173 175 176
164 162 164 171 165 164 162 176 178 183 155 148 151 153 171 154 153 164 161 173 147 137 151 136 166 165 145 130 123 125 114 128 141 152 159 168 168 172 179 183 181 184 187
164 163 170 169 162 165 164 173 181 170 145 147 152 156 168 169 167 176 148 131 162 153 162 179 147 151 140 146 155 158 146 152 157 176 166 171 171 169 173 183 187 190 196
160 161 169 167 160 159 161 168 176 169 158 154 155 160 163 173 178 183 156 162 190 166 142 97 116 98 133 192 190 149 155 159 177 170 183 175 174 178 172 174 183 195 203
161 164 170 172 164 161 165 175 182 182 174 169 171 169 170 180 183 202 156 159 181 171 158 151 152 167 204 187 139 155 180 183 182 180 195 174 181 177 166 170 184 190 196
167 170 173 175 171 172 173 175 182 179 178 178 176 171 180 179 183 193 171 177 173 168 155 139 127 158 226 182 170 163 192 216 219 199 182 193 184 176 176 183 187 185 189
171 174 178 176 174 176 171 175 183 171 174 174 177 180 184 183 192 192 174 192 174 179 172 183 179 194 222 195 201 190 175 198 218 221 200 188 173 174 195 188 187 188 195
172 175 172 170 172 177 175 183 181 183 187 185 178 180 180 189 189 189 185 186 190 195 165 195 193 194 205 217 212 212 195 137 156 228 254 191 184 187 210 204 190 190 200
169 168 167 167 173 177 183 189 187 192 191 185 179 179 182 190 195 194 188 188 193 193 179 196 166 202 217 226 221 211 204 187 216 195 218 211 202 193 197 203 194 195 197
165 164 166 168 174 178 185 189 191 196 192 190 191 187 189 189 195 193 189 186 191 191 179 175 171 201 234 263 276 267 193 201 236 229 209 214 204 199 193 189 187 195 197
Height
1511 1513 1515 1517 1519 1521 1524 1525 1527 1529 1530 1532 1533 1534 1535 1536 1537 1538 1539 1540 1542 1543 1544 1545 1546 1547 1548 1549 1550 1551 1552 1553 1554 1555 1556 1557 1559 1560 1561 1562 1563 1564 1565
1510 1513 1516 1519 1521 1523 1525 1527 1529 1531 1532 1534 1535 1536 1538 1539 1540 1541 1542 1543 1544 1545 1546 1547 1548 1549 1550 1551 1552 1553 1554 1555 1556 1557 1559 1560 1561 1562 1563 1564 1565 1567 1568
1511 1514 1517 1520 1522 1525 1527 1529 1531 1533 1535 1536 1538 1539 1540 1541 1542 1543 1544 1545 1546 1547 1548 1549 1550 1551 1552 1553 1555 1556 1557 1558 1559 1560 1561 1562 1563 1565 1566 1567 1568 1569 1570
1512 1515 1518 1521 1524 1526 1529 1531 1533 1535 1537 1538 1540 1541 1542 1543 1545 1546 1546 1547 1548 1549 1550 1551 1552 1553 1555 1556 1557 1558 1560 1561 1561 1562 1564 1565 1566 1567 1568 1570 1571 1572 1573
1515 1517 1520 1523 1525 1528 1530 1533 1535 1537 1538 1540 1542 1543 1544 1546 1547 1548 1549 1550 1551 1552 1553 1554 1555 1556 1557 1558 1559 1561 1562 1563 1564 1565 1566 1568 1568 1570 1571 1572 1573 1574 1575
1516 1518 1521 1524 1527 1529 1532 1534 1536 1538 1540 1542 1544 1545 1547 1548 1549 1550 1551 1552 1553 1554 1555 1556 1557 1558 1559 1560 1562 1563 1565 1566 1567 1568 1569 1570 1571 1572 1573 1574 1575 1576 1578
1517 1519 1523 1525 1528 1531 1533 1536 1538 1540 1542 1544 1545 1547 1549 1550 1551 1552 1553 1554 1555 1556 1557 1558 1559 1560 1561 1563 1564 1565 1567 1568 1570 1570 1571 1572 1573 1574 1575 1576 1577 1578 1580
1518 1520 1523 1526 1529 1532 1535 1537 1539 1541 1543 1545 1547 1549 1550 1552 1553 1554 1555 1556 1557 1559 1560 1560 1561 1562 1564 1565 1566 1567 1569 1570 1572 1572 1573 1574 1574 1576 1577 1578 1579 1580 1581
1520 1521 1524 1527 1530 1533 1536 1538 1540 1543 1545 1547 1549 1550 1552 1553 1555 1556 1557 1558 1560 1561 1562 1563 1564 1565 1566 1567 1568 1569 1571 1572 1573 1574 1574 1575 1576 1577 1578 1580 1581 1582 1583
1521 1522 1525 1527 1530 1533 1536 1539 1541 1544 1546 1548 1550 1552 1553 1555 1556 1558 1559 1560 1561 1563 1564 1565 1566 1567 1568 1569 1570 1572 1573 1573 1575 1575 1576 1577 1578 1579 1580 1581 1582 1584 1585
1521 1523 1526 1528 1531 1534 1537 1540 1542 1545 1547 1549 1551 1553 1555 1556 1558 1559 1561 1562 1563 1564 1565 1567 1568 1569 1570 1571 1572 1574 1574 1575 1576 1576 1577 1578 1579 1580 1581 1583 1584 1585 1586
1521 1523 1526 1528 1531 1535 1538 1540 1542 1545 1547 1550 1552 1554 1556 1558 1560 1561 1562 1564 1565 1566 1567 1569 1570 1571 1572 1573 1574 1575 1575 1576 1577 1577 1578 1579 1580 1581 1582 1584 1585 1586 1588
1520 1524 1525 1528 1532 1536 1538 1540 1543 1545 1547 1550 1553 1555 1557 1559 1561 1562 1563 1565 1566 1567 1569 1570 1571 1572 1573 1575 1576 1576 1577 1577 1578 1578 1579 1581 1582 1583 1584 1585 1586 1587 1588
1520 1523 1526 1528 1532 1535 1538 1541 1544 1546 1548 1551 1553 1556 1558 1560 1562 1563 1564 1566 1567 1568 1570 1571 1572 1573 1574 1576 1577 1577 1578 1579 1579 1579 1580 1581 1582 1583 1584 1585 1586 1588 1589
1519 1522 1525 1528 1531 1534 1537 1541 1543 1546 1548 1550 1553 1556 1558 1561 1562 1564 1565 1567 1568 1570 1571 1572 1573 1574 1575 1577 1578 1578 1579 1580 1579 1580 1581 1582 1583 1584 1585 1586 1587 1588 1589
1517 1521 1523 1526 1530 1533 1536 1540 1542 1545 1547 1550 1552 1555 1558 1561 1562 1564 1565 1567 1568 1570 1571 1572 1574 1575 1576 1577 1578 1579 1580 1580 1580 1580 1582 1583 1583 1584 1585 1586 1587 1588 1589
1515 1519 1522 1524 1528 1532 1535 1538 1542 1544 1546 1549 1552 1554 1557 1560 1561 1564 1566 1567 1568 1570 1571 1572 1574 1575 1576 1577 1578 1579 1580 1581 1581 1582 1582 1583 1584 1584 1585 1586 1587 1588 1589
1514 1517 1520 1523 1525 1529 1533 1537 1540 1543 1545 1548 1551 1553 1556 1558 1561 1563 1565 1567 1568 1570 1571 1573 1574 1575 1576 1577 1578 1579 1580 1581 1581 1582 1583 1583 1583 1584 1585 1586 1587 1588 1589
1512 1515 1518 1521 1523 1527 1531 1534 1538 1541 1544 1546 1549 1552 1555 1557 1560 1562 1565 1566 1568 1570 1571 1573 1574 1575 1576 1577 1578 1578 1580 1580 1581 1583 1583 1583 1583 1584 1585 1586 1586 1587 1588
1511 1513 1516 1519 1522 1525 1528 1532 1536 1539 1541 1545 1548 1551 1554 1556 1559 1562 1564 1565 1568 1569 1571 1572 1573 1574 1575 1576 1578 1578 1579 1580 1581 1582 1583 1583 1584 1584 1584 1585 1586 1587 1587
1509 1511 1514 1517 1520 1523 1526 1530 1533 1537 1540 1543 1546 1549 1552 1555 1558 1560 1563 1564 1566 1568 1570 1571 1572 1574 1575 1576 1577 1578 1579 1579 1580 1581 1582 1583 1583 1584 1584 1584 1585 1585 1586
1507 1509 1512 1515 1518 1521 1525 1528 1532 1535 1539 1542 1545 1548 1551 1553 1556 1559 1561 1563 1565 1567 1568 1570 1571 1573 1574 1575 1576 1577 1578 1579 1579 1580 1581 1581 1583 1583 1584 1584 1585 1585 1585
1505 1508 1510 1513 1516 1520 1524 1527 1531 1534 1537 1540 1543 1546 1548 1551 1554 1557 1559 1561 1563 1565 1567 1568 1570 1571 1573 1574 1575 1577 1577 1577 1578 1579 1580 1580 1581 1582 1583 1583 1583 1583 1584
1504 1507 1509 1512 1515 1519 1522 1525 1528 1531 1534 1537 1541 1544 1546 1549 1552 1555 1557 1559 1561 1564 1566 1567 1569 1570 1572 1573 1574 1575 1576 1576 1577 1578 1579 1579 1580 1581 1581 1582 1582 1581 1582
1504 1506 1509 1511 1514 1517 1520 1523 1526 1530 1533 1536 1539 1542 1544 1547 1550 1553 1555 1557 1559 1562 1563 1565 1567 1569 1570 1571 1572 1574 1575 1576 1576 1577 1577 1578 1578 1579 1579 1580 1581 1581 1581
1503 1505 1508 1509 1512 1515 1518 1521 1524 1527 1530 1533 1536 1539 1542 1544 1547 1550 1552 1555 1557 1559 1561 1563 1565 1567 1568 1569 1571 1572 1573 1574 1575 1575 1576 1576 1577 1577 1577 1578 1579 1579 1580